Regional Weather Roundup
Issued by NWS

Home | Current Version | Previous Version | Text Only | Print | Product List | Glossary Off
Versions: 1 2 3 4 5 6 7 8 9 10 11 12 13 14 15 16 17 18 19 20 21 22 23 24 25 26 27 28 29 30 31 32 33 34 35 36 37 38 39 40 41 42 43 44 45 46 47 48 49 50

000
ASUS43 KIND 230800
RWRIN

WEATHER ROUNDUP FOR INDIANA
NATIONAL WEATHER SERVICE INDIANAPOLIS IN
400 AM EDT SUN JUL 23 2017

NOTE: "FAIR" INDICATES FEW OR NO CLOUDS BELOW 12,000 FEET WITH NO
SIGNIFICANT WEATHER AND/OR OBSTRUCTIONS TO VISIBILITY.

* - STATION DOES NOT REPORT WEATHER SUCH AS PRECIPITATION OR FOG.

+ - STATION NOT QUALITY CONTROLLED BY THE NATIONAL WEATHER SERVICE.
    USE DATA WITH CAUTION...ESPECIALLY DEWPOINT AND RELATIVE
    HUMIDITY OBSERVATIONS.

INZ001>003-010>013-019-020-230900-
NORTHWEST INDIANA

CITY           SKY/WX    TMP DP  RH WIND       PRES   REMARKS
MONTICELLO +   CLOUDY    73  72  95 CALM      29.76F

$$

LMZ046-743>745-230900-
SOUTHERN LAKE MICHIGAN

STATION/POSITION TIME  TEMP    WIND        PRES    WAVE
                       AIR SEA DIR/SP/G            HT
                 (UTC) (F)     (DEG/KT/KT) (MB)    (FT)
BURNS HARBOR     0740   73      CALM  /  1 1009.1F
MICHIGAN CITY    0730   73     180/  3/  3   N/A
5NW MICH CITY    0750   74 75  180/  2/  2   N/A     0

$$

INZ004-005-014>016-021>024-230900-
NORTH CENTRAL INDIANA

CITY           SKY/WX    TMP DP  RH WIND       PRES   REMARKS
GOSHEN         MOCLDY    68  66  93 CALM      29.80S FOG
SOUTH BEND     MOCLDY    69  69 100 NE3       29.79F

$$

INZ006>009-017-018-025>027-230900-
NORTHEAST INDIANA

CITY           SKY/WX    TMP DP  RH WIND       PRES   REMARKS
FORT WAYNE     PTCLDY    70  67  90 CALM      29.78F
KENDALLVILLE + FOG       66  66 100 CALM      29.80F VSB 1/2

$$

INZ028-029-035-036-043>045-051>053-230900-
WEST CENTRAL INDIANA

CITY           SKY/WX    TMP DP  RH WIND       PRES   REMARKS
LAFAYETTE      MOCLDY    74  74 100 CALM      29.76S
TERRE HAUTE    CLOUDY    71  68  90 CALM      29.78R

$$

INZ030>032-037>040-046>048-054>057-064-065-230900-
CENTRAL INDIANA

CITY           SKY/WX    TMP DP  RH WIND       PRES   REMARKS
GREENWOOD *+   CLOUDY   N/A N/A N/A W3        29.80R
INDIANAPOLIS   CLOUDY    73  70  90 SW8       29.79R
-EAGLE CREEK   MOCLDY    75  70  84 S8        29.78S
KOKOMO +       PTCLDY    73  72  96 CALM      29.79F
MT COMFORT *+  CLOUDY    73  72  94 SW6       29.79F
SHELBYVILLE    CLOUDY    75  71  87 SW3       29.80R

$$

INZ033-034-041-042-049-050-058-059-230900-
EAST CENTRAL INDIANA

CITY           SKY/WX    TMP DP  RH WIND       PRES   REMARKS
MUNCIE         CLOUDY    75  72  90 CALM      29.78F
RICHMOND +     CLOUDY    70  70 100 S5        29.81F

$$

INZ060-061-067>069-081>083-085>088-230900-
SOUTHWEST INDIANA

CITY           SKY/WX    TMP DP  RH WIND       PRES   REMARKS
EVANSVILLE     CLOUDY    84  73  69 SW9       29.80S THUNDER
HUNTINGBURG *+ TSTM      72  71  97 NE12      29.86S

$$

INZ062-063-066-070>080-084-089>092-230900-
SOUTH CENTRAL AND SOUTHEAST INDIANA

CITY           SKY/WX    TMP DP  RH WIND       PRES   REMARKS
BLOOMINGTON    CLOUDY    72  67  84 SW12      29.82S
MADISON *+     CLOUDY    72  70  94 SW6       29.86R
SEYMOUR +      CLOUDY    72  70  94 S12       29.79F

$$





USA.gov is the U.S. government's official web portal to all federal, state and local government web resources and services.